Regional Weather Roundup
Issued by NWS Grand Forks, ND

Home | Current Version | Previous Version | Text Only | Print | Product List | Glossary On
Versions: 1 2 3 4 5 6 7 8 9 10 11 12 13 14 15 16 17 18 19 20 21 22 23 24 25 26 27 28 29 30 31 32 33 34 35 36 37 38 39 40 41 42 43 44 45 46 47 48 49 50
000
ASUS43 KFGF 232031
RWRFGF
PRAIRIE TO PINES  WEATHER ROUNDUP
NATIONAL WEATHER SERVICE EASTERN NORTH DAKOTA/GRAND FORKS ND
300 PM CDT SUN APR 23 2017

 **SATELLITE DATA USED TO AUGMENT SKY COVER AT AUTOMATED STATIONS**
 *****  WEATHER ACROSS EASTERN NORTH DAKOTA  *****

CITY           SKY/WX    TMP DP  RH WIND       PRES   REMARKS
GRAND FORKS    LGT SNOW  32  30  92 NE13      30.12F VSB 3/4 WCI  22
GRAND FRKS AFB LGT SNOW  30  28  93 E14       30.11F VSB 1   WCI  20
DEVILS LAKE    LGT SNOW  28  25  86 E18       30.07F VSB 3/4 WCI  16
FARGO          CLOUDY    43  34  70 NE21      30.02F
WAHPETON ARPT  FAIR      52  39  62 E16G24    29.94F
$$

 ***** WEATHER ACROSS CENTRAL AND WESTERN NORTH DAKOTA  *****

CITY           SKY/WX    TMP DP  RH WIND       PRES   REMARKS
BISMARCK       CLOUDY    40  33  76 E17G28    29.94S
MINOT          LGT SNOW  32  28  85 E20       30.02F FOG     WCI  20
JAMESTOWN      CLOUDY    35  30  82 NE22G28   29.99R WCI  23
MINOT AFB      MIX PCPN  32  28  86 E21       30.02F FOG     WCI  20
GARRISON         N/A     31  28  89 E22G35    29.97F WCI  18
WILLISTON      CLOUDY    33  27  78 E16G28    29.96F WCI  23
DICKINSON      CLOUDY    35  30  82 E17       29.85F WCI  25
HETTINGER      CLOUDY    44  35  70 NE14      29.83F
$$

 *****  OTHER AIRPORT OBSERVATIONS IN OUR AREA  *****

CITY           SKY/WX    TMP DP  RH WIND       PRES   REMARKS
WALHALLA       NOT AVBL
GRAFTON AIRPOR FAIR      37  18  44 E14       30.14F
VALLEY CITY AR FLURRIES  34  34 100 NE25      30.01R WCI  21
CANDO          NOT AVBL
CAVALIER APRT  FAIR      39  16  38 E8G20     30.14F
GWINNER        PTCLDY    50  41  71 MISG      29.91F
SHEYENNE NWR     N/A     46  36  68 E18       29.95
ROLLA          CLOUDY    32  14  47 E16G24    30.08F WCI  21
 ***** THE ABOVE OBSERVATIONS ARE NON NWS ARE NOT QUALITY
       CONTROLLED AND MAY MIS-REPORT RAIN FOR SNOW...
$$

  *****  WEATHER ACROSS NORTHERN MINNESOTA  *****

CITY           SKY/WX    TMP DP  RH WIND       PRES   REMARKS
FLAG ISLAND    FAIR      34  10  37 N13       30.17F WCI  25
WARROAD        FAIR      36  18  48 NE9       30.18F
ROSEAU         FAIR      36  18  48 E14       30.17F
HALLOCK        FAIR      39  10  30 E15       30.15F
THF RVR FALLS  LGT SNOW  30  25  80 E12       30.15S WCI  21
BAUDETTE       PTSUNNY   37  10  32 E5        30.16F
WASKISH        CLOUDY    36  21  55 E10       30.14F
CROOKSTON      LGT SNOW  30  28  93 E16G23    30.12F WCI  19
STEPHEN NDAWN    N/A     37  12  35 E9          N/A
GREENBUSH NDAW   N/A     36  18  48 E12         N/A
$$
  *****  WEATHER ACROSS CENTRAL AND WEST MINNESOTA  *****

CITY           SKY/WX    TMP DP  RH WIND       PRES   REMARKS
FOSSTON        FLURRIES  32  28  86 E10G17    30.10F WCI  24
BEMIDJI        FLURRIES  31  27  85 E13       30.11F WCI  21
PARK RAPIDS    CLOUDY    35  27  72 E12G18    30.08F
ELBOW LAKE     FAIR      54  41  61 E17       29.94F
WADENA         PTSUNNY   43  34  70 NE14      30.01F
DETROIT LAKES  CLOUDY    37  32  81 E13G21    30.03F
MOORHEAD       CLOUDY    45  36  70 E17       30.00F
FERGUS FALLS   FAIR      50  37  62 E16G24    29.95F
MORRIS MN      FAIR      66  37  34 S5        29.89F
STAPLES        CLOUDY    45  32  61 E8        30.03F
$$
  *****  WEATHER ELSEWHERE ACROSS MINNESOTA  *****

CITY           SKY/WX    TMP DP  RH WIND       PRES   REMARKS
DULUTH         CLOUDY    34  29  82 E14       30.12F WCI  25
INTRNTL FALLS  PTSUNNY   36  11  35 CALM      30.16F
ELY            FAIR      37  18  44 NE7       30.13F
CLOQUET        CLOUDY    36  30  80 E10G16    30.12F
WHEATON        FAIR      63  36  36 E7        29.90F
BRAINERD       CLOUDY    42  34  73 NE15      30.08S
HIBBING        FLURRIES  31  29  92 E5        30.14F
ALEXANDRIA     FAIR      55  41  59 E16       29.98F
SAINT CLOUD    FAIR      54  41  61 E10       30.01F
MINNEAPOLIS    CLOUDY    67  40  37 N6        29.99F
$$

  *****  WEATHER ACROSS SOUTH DAKOTA  *****

CITY           SKY/WX    TMP DP  RH WIND       PRES   REMARKS
SIOUX FALLS    CLOUDY    67  37  33 S20G31    29.92F
BROOKINGS      FAIR      68  32  26 S17G31    29.89F
WATERTOWN      FAIR      67  32  27 S23G29    29.87F
HURON          FAIR      70  32  24 S17G24    29.83F
SISSETON         N/A     61  40  45 SE7       29.88F
ABERDEEN       FAIR      65  34  31 S15G21    29.84F
MITCHELL       FAIR      72  27  18 S28G36    29.85F
PIERRE         FAIR      74  36  25 SW20G26   29.71F
MOBRIDGE       FAIR      64  39  39 E14       29.76F
RAPID CITY     FAIR      66  40  38 N8G17     29.73F
$$

  *****  SOME WEATHER IN NEARBY STATES *****

CITY           SKY/WX    TMP DP  RH WIND       PRES   REMARKS
GLASGOW MT     CLOUDY    41  32  70 E21G26    29.80F
GREAT FALLS MT CLOUDY    46  41  82 W5        29.74F
CHEYENNE WY    FAIR      64  29  26 S15G22    29.85F
SCOTTSBLUFF NE FAIR      75  27  17 S8        29.76F
OMAHA NE       PTSUNNY   72  26  18 S22G30    30.02F
DES MOINES IA  FAIR      73  33  23 S13G20    30.05F
DAVENPORT IA   FAIR      70  28  21 VRB3      30.06F
CHICAGO IL     FAIR      72  27  18 NE8       30.04F
EAU CLAIRE WI  FAIR      65  39  38 CALM      30.00F
LA CROSSE WI   FAIR      74  36  25 MISG      29.99F
$$

  *****  SOME NATIONAL WEATHER *****

CITY           SKY/WX    TMP DP  RH WIND       PRES   REMARKS
LA GUARDIA NY  CLOUDY    63  37  38 S12       30.06F
RALEIGH NC     LGT RAIN  54  52  93 NE14      29.99F
ATLANTA GA     LGT RAIN  62  60  93 NW10      29.77R
NEW ORLEANS LA PTSUNNY   67  53  61 NW13G18   29.89F
OKLAHOMA CITY  FAIR      67  35  30 NE8       30.13F
ALBUQUERQUE NM FAIR      70  33  25 S10       30.07F
SALT LAKE CITY PTSUNNY   65  40  39 W13       29.80S
LOS ANGELES CA FAIR      69  57  65 W14       29.87F
BOISE ID       FAIR      62  39  42 NW5       29.81F
SEATTLE WA     LGT RAIN  53  44  71 S10       29.87F
$$

*** WEATHER ACROSS MANITOBA...SASKATCHEWAN AND ONTARIO ***
                ***ONTARIO***

CITY           SKY/WX    TMP DP  RH WIND       PRES   REMARKS
GERALDTON      MOSUNNY   30   7  37 VRB3      30.17F
THUNDER BAY    PTSUNNY   39  18  41 E12G20    30.18F
SIOUX LOOKOUT  PTSUNNY   34   9  35 N7        30.19F
TORONTO        MOSUNNY   68  32  26 W12G20    30.00F
BIG TROUT LK   CLOUDY    19   5  53 NW16      30.23F WCI   5
PICKLE LAKE    NOT AVBL
DRYDEN         CLOUDY    34   7  32 N6        30.17F
KENORA         PTSUNNY   36  10  35 NE6       30.17F
$$
                *** MANITOBA***

CITY           SKY/WX    TMP DP  RH WIND       PRES   REMARKS
BRANDON        CLOUDY    39  14  35 E14G20    30.12F
DAUPHIN        SUNNY     43  16  33 E15G21    30.14F
ISLAND LAKE    MOSUNNY   27   5  39 NW9       30.25F WCI  17
PILOT MOUND      N/A     37  14  38 E15G23      N/A
THE PAS        PTSUNNY   30  10  43 N9        30.21F WCI  22
THOMPSON       MOSUNNY   21  -4  33 N6        30.26F WCI  14
WINNIPEG       PTSUNNY   39  18  41 NE14      30.18F
LYNN LAKE      SUNNY     21   0  39 W9        30.23F WCI  11
CHURCHILL      MOSUNNY    1  -6  71 NW17      30.37S WCI -19
GILLAM         PTSUNNY   16   0  48 W7        30.32F WCI   6
$$
                ***SASKATCHEWAN***

CITY           SKY/WX    TMP DP  RH WIND       PRES   REMARKS
ESTEVAN        LGT SNOW  32  25  74 E21G31    30.00F DRFTSNOWWCI  20
KINDERSLEY     LGT SNOW  34  32  93 E21       29.83F WCI  22
LLOYDMINSTER   SNOW      32  32 100 E17G25    29.91F VSB 1/2 WCI  21
PRINCE ALBERT  CLOUDY    39  21  48 SE14      30.05F
REGINA         CLOUDY    39  12  33 SE23G33   29.98F
YORKTON        SUNNY     41  14  33 SE13G26   30.07F
N. BATTLEFORD  LGT SNOW  36 N/A N/A E21G26    29.95F
LA RONGE       MOSUNNY   32  12  43 NE12      30.15F WCI  23
SASKATOON      CLOUDY    41  25  52 SE13G21   29.97F
SWIFT CURRENT  CLOUDY    34  30  86 SE22G28   29.81F WCI  22
$$
NOTE: THESE ARE AUTOMATED STATIONS WITH LIMITED QUALITY CONTROL
      "FAIR" INDICATES FEW OR NO CLOUDS BELOW 12,000 FEET WITH NO
      SIGNIFICANT WEATHER AND/OR OBSTRUCTIONS TO VISIBILITY.
      SKY/WX - SKY CONDITION AND SIGNIFICANT WEATHER.
      TMP - AIR TEMPERATURE.    DP   - DEWPOINT TEMPERATURE.
      RH  - RELATIVE HUMIDITY.  PRES - PRESSURE.
      HX  - HEAT INDEX.         WCI  - WIND CHILL INDEX.
$




USA.gov is the U.S. government's official web portal to all federal, state and local government web resources and services.